カタログに戻る

CZ-6A DEB

運用中PO
NORAD 61095·DEBRIS·🇨🇳 China

打ち上げ Aug 6, 2024 から Taiyuan Satellite Launch Center

Loading…

次のパス (今後24時間)

TLE

最新Source: Space-Track

元期: Sep 14, 2026, 06:55 UTC

1 61095U 24140NM  26257.28833082  .00000868  00000-0  36673-3 0  9998
2 61095  88.9913 263.6699 0031007 245.8035 113.9916 14.24505677106222

AllMySatでCZ-6A DEBをリアルタイム追跡

Download on the App Store